FW9019 Weather Reports


Display with metric or nautical units.
time (UTC)temp
F
wind
direction
speed
MPH
gust
MPH
rain 1hr
in
rain 24hr
in
rain mn
in
humidity
%
barometer
mb
20260505204038 49 141 0.0 2.0 0.00 0.00 0.00 89 1007.8
20260505203018 50 169 0.0 1.0 0.00 0.00 0.00 89 1007.7
20260505202120 51 148 0.0 2.0 0.00 0.00 0.00 89 1007.4
20260505201100 51 0.0 0.0 0.00 0.00 0.00 89 1007.3
20260505200020 51 161 0.0 1.0 0.00 0.00 0.00 89 1007.3
20260505195122 51 169 0.0 1.0 0.00 0.00 0.00 88 1007.5
20260505194104 51 232 0.0 1.0 0.00 0.00 0.00 88 1007.4
20260505193022 51 270 0.0 2.0 0.00 0.00 0.00 88 1007.2
20260505192104 51 223 0.0 1.0 0.00 0.00 0.00 88 1007.2
20260505191044 51 0.0 0.0 0.00 0.00 0.00 88 1007.4
20260505190024 51 0.0 0.0 0.00 0.00 0.00 88 1007.2
20260505185106 51 268 0.0 1.0 0.00 0.00 0.00 87 1007.6
20260505184046 51 262 1.0 2.0 0.00 0.00 0.00 87 1007.3
20260505183046 51 270 1.0 3.0 0.00 0.00 0.00 87 1007.0
20260505182108 50 341 0.0 1.0 0.00 0.00 0.00 86 1007.4
20260505181049 50 0.0 0.0 0.00 0.00 0.00 86 1007.6
20260505180029 50 0.0 0.0 0.00 0.00 0.00 86 1007.7
20260505175039 50 0.0 0.0 0.00 0.00 0.00 85 1008.0
20260505174019 51 0.0 0.0 0.00 0.00 0.00 86 1008.2
20260505173030 51 46 0.0 1.0 0.00 0.00 0.00 86 1008.2
20260505172113 51 0.0 0.0 0.00 0.00 0.00 86 1008.5
20260505171021 51 307 0.0 1.0 0.00 0.00 0.00 86 1008.6
20260505170032 52 307 0.0 1.0 0.00 0.00 0.00 86 1008.3
20260505165114 52 0.0 0.0 0.00 0.00 0.00 86 1008.4
20260505164054 53 0.0 0.0 0.00 0.00 0.00 86 1008.4
20260505163054 55 30 1.0 2.0 0.00 0.00 0.00 86 1008.3
20260505162116 56 0.0 0.0 0.00 0.00 0.00 87 1008.2
20260505161056 56 0.0 0.0 0.00 0.00 0.00 87 1008.0
20260505153038 57 0.0 0.0 0.00 0.00 0.00 86 1007.9
20260505152018 57 0.0 0.0 0.00 0.00 0.00 86 1008.0
20260505151029 57 0.0 0.0 0.00 0.00 0.00 86 1007.9
20260505150131 57 0.0 0.0 0.00 0.00 0.00 86 1008.2
20260505140116 56 42 0.0 1.0 0.00 0.00 0.00 89 1007.6
20260505124111 55 42 1.0 2.0 0.00 0.00 0.00 90 1007.1
20260505123050 55 42 0.0 3.0 0.00 0.00 0.00 90 1007.0
20260505122030 54 42 0.0 1.0 0.00 0.00 0.00 90 1006.9
20260505121041 54 42 0.0 1.0 0.00 0.00 0.00 90 1007.1
20260505120052 54 0.0 0.0 0.00 0.00 0.00 90 1007.0
20260505115035 53 42 0.0 2.0 0.00 0.00 0.00 90 1006.8
20260505114135 53 0.0 0.0 0.00 0.00 0.00 90 1006.6
20260505113054 53 0.0 0.0 0.00 0.00 0.00 90 1006.2
20260505112136 53 42 1.0 3.0 0.00 0.00 0.00 90 1006.1
20260505111045 53 0.0 0.0 0.00 0.00 0.00 90 1005.8
20260505102038 53 0.0 0.0 0.00 0.00 0.00 90 1006.0
20260505101018 53 42 0.0 1.0 0.00 0.00 0.00 90 1006.1
20260505100100 53 42 0.0 1.0 0.00 0.00 0.00 90 1005.7
20260505095040 53 42 0.0 1.0 0.00 0.00 0.00 90 1005.3
20260505094053 53 42 0.0 1.0 0.00 0.00 0.00 90 1005.6
20260505093031 53 42 1.0 3.0 0.00 0.00 0.00 90 1005.7
20260505092043 53 0.0 0.0 0.00 0.00 0.00 89 1005.3
20260505091053 53 45 0.0 1.0 0.00 0.00 0.00 89 1004.9
20260505090033 53 52 1.0 2.0 0.00 0.00 0.00 89 1005.0
20260505085044 53 86 2.0 6.0 0.00 0.00 0.00 89 1004.8
20260505084024 53 38 2.0 5.0 0.00 0.00 0.00 89 1004.8
20260505083055 53 56 2.0 3.0 0.00 0.00 0.00 89 1004.7
20260505082051 53 126 1.0 2.0 0.00 0.00 0.00 89 1006.0
20260505081026 53 152 0.0 1.0 0.00 0.00 0.00 89 1006.9
20260505080159 53 0.0 0.0 0.00 0.00 0.00 88 1007.0
20260505075017 53 0.0 0.0 0.00 0.00 0.00 88 1007.3
20260505074100 53 0.0 0.0 0.00 0.00 0.00 88 1006.9
20260505073142 54 0.0 0.0 0.00 0.00 0.00 88 1007.0
20260505072050 54 0.0 0.0 0.00 0.00 0.00 88 1007.3
20260505071030 54 0.0 0.0 0.00 0.00 0.00 87 1007.1
20260505070112 54 0.0 0.0 0.00 0.00 0.00 87 1006.7
20260505065142 54 0.0 0.0 0.00 0.00 0.00 87 1006.3
20260505064031 54 0.0 0.0 0.00 0.00 0.00 86 1006.1
20260505063113 54 0.0 0.0 0.00 0.00 0.00 86 1006.3
20260505062042 54 0.0 0.0 0.00 0.00 0.00 85 1006.0
20260505061033 54 0.0 0.0 0.00 0.00 0.00 85 1007.2
20260505060044 55 159 1.0 2.0 0.00 0.00 0.00 84 1007.1
20260505055024 56 200 1.0 2.0 0.00 0.00 0.00 83 1006.8
20260505054108 57 106 1.0 3.0 0.00 0.00 0.00 81 1006.7
20260505053118 58 112 1.0 3.0 0.00 0.00 0.00 78 1005.6
20260505052047 63 95 2.0 5.0 0.00 0.00 0.00 68 1006.1
20260505051101 64 77 2.0 6.0 0.00 0.00 0.00 59 1004.7
20260505041112 67 343 2.0 3.0 0.00 0.00 0.00 45 1003.0
20260505040053 67 341 1.0 3.0 0.00 0.00 0.00 45 1003.0
20260505035033 67 331 1.0 3.0 0.00 0.00 0.00 45 1003.1
20260505034115 67 142 1.0 2.0 0.00 0.00 0.00 45 1003.0
20260505033055 67 97 1.0 2.0 0.00 0.00 0.00 45 1003.2
20260505032107 67 88 1.0 2.0 0.00 0.00 0.00 45 1003.3
20260505031117 67 91 1.0 5.0 0.00 0.00 0.00 46 1003.4
20260505030057 67 92 1.0 2.0 0.00 0.00 0.00 46 1003.5
20260505025056 68 94 1.0 3.0 0.00 0.00 0.00 46 1003.5
20260505024118 68 105 1.0 2.0 0.00 0.00 0.00 47 1003.6
20260505023149 68 106 1.0 5.0 0.00 0.00 0.00 45 1003.5
20260505022040 68 106 1.0 2.0 0.00 0.00 0.00 45 1003.6
20260505021120 68 106 1.0 1.0 0.00 0.00 0.00 45 1003.6
20260505020029 68 106 1.0 2.0 0.00 0.00 0.00 45 1003.5
20260505015111 69 105 1.0 2.0 0.00 0.00 0.00 45 1003.4
20260505014021 69 106 1.0 2.0 0.00 0.00 0.00 45 1003.3
20260505013031 68 134 0.0 2.0 0.00 0.00 0.00 46 1003.0
20260505012113 69 70 0.0 1.0 0.00 0.00 0.00 46 1002.8
20260505011053 69 70 1.0 2.0 0.00 0.00 0.00 45 1002.6
20260505010033 69 86 2.0 3.0 0.00 0.00 0.00 44 1002.4
20260505005116 69 90 1.0 2.0 0.00 0.00 0.00 44 1002.2
20260505004055 70 91 1.0 5.0 0.00 0.00 0.00 44 1002.2
20260505003055 70 89 2.0 5.0 0.00 0.00 0.00 44 1002.0
20260505002118 70 98 1.0 2.0 0.00 0.00 0.00 43 1002.1
20260505001027 71 131 2.0 5.0 0.00 0.00 0.00 42 1002.1
20260505000109 71 80 2.0 5.0 0.00 0.00 0.00 41 1002.3
20260504235049 71 109 2.0 6.0 0.00 0.00 0.00 40 1002.4
20260504234029 72 69 1.0 5.0 0.00 0.00 0.00 39 1002.8
20260504233110 72 66 2.0 5.0 0.00 0.00 0.00 39 1002.9
20260504232019 72 75 2.0 6.0 0.00 0.00 0.00 37 1003.0
20260504231101 72 90 3.0 5.0 0.00 0.00 0.00 37 1003.1
20260504230041 73 61 4.0 8.0 0.00 0.00 0.00 36 1003.1
20260504225021 73 80 3.0 5.0 0.00 0.00 0.00 36 1003.5
20260504224103 72 74 2.0 3.0 0.00 0.00 0.00 39 1003.5
20260504223115 73 69 2.0 5.0 0.00 0.00 0.00 41 1003.4
20260504222055 72 66 1.0 3.0 0.00 0.00 0.00 48 1003.2
20260504221055 71 91 1.0 2.0 0.00 0.00 0.00 50 1003.5
20260504220117 71 38 2.0 5.0 0.00 0.00 0.00 51 1003.6
20260504215057 71 351 2.0 6.0 0.00 0.00 0.00 52 1003.6
20260504214037 70 11 2.0 7.0 0.00 0.00 0.00 52 1003.8
20260504213119 70 350 1.0 3.0 0.00 0.00 0.00 53 1003.9
20260504212059 70 22 3.0 5.0 0.00 0.00 0.00 53 1003.9
20260504211038 68 353 2.0 5.0 0.00 0.00 0.00 57 1004.2
20260504210049 67 350 1.0 3.0 0.00 0.00 0.00 62 1004.5
20260504205029 65 63 1.0 5.0 0.00 0.00 0.00 65 1004.7